TimeEDT,TemperatureF,Dew PointF,Humidity,Sea Level PressureIn,VisibilityMPH,Wind Direction,Wind SpeedMPH,Gust SpeedMPH,PrecipitationIn,Events,Conditions,WindDirDegrees,DateUTC
12:53 AM,73.0,70.0,90,30.00,10.0,East,5.8,-,N/A,,Clear,100,2013-05-21 04:53:00
1:53 AM,73.0,70.0,90,29.99,10.0,East,10.4,-,N/A,,Clear,90,2013-05-21 05:53:00
2:53 AM,72.0,69.1,91,29.96,10.0,East,5.8,-,N/A,,Clear,90,2013-05-21 06:53:00
3:53 AM,71.1,69.1,93,29.96,10.0,East,4.6,-,N/A,,Clear,80,2013-05-21 07:53:00
4:53 AM,70.0,69.1,97,29.96,9.0,Calm,Calm,-,N/A,,Clear,0,2013-05-21 08:53:00
5:53 AM,70.0,68.0,93,29.96,9.0,ENE,5.8,-,N/A,,Clear,60,2013-05-21 09:53:00
6:53 AM,69.1,68.0,96,29.99,8.0,NE,5.8,-,N/A,,Clear,50,2013-05-21 10:53:00
7:53 AM,72.0,69.1,91,29.99,9.0,East,6.9,-,N/A,,Clear,80,2013-05-21 11:53:00
8:53 AM,75.9,70.0,82,30.00,10.0,East,10.4,-,N/A,,Clear,100,2013-05-21 12:53:00
9:53 AM,80.1,71.1,74,30.01,10.0,East,6.9,-,N/A,,Clear,90,2013-05-21 13:53:00
10:53 AM,82.9,72.0,69,30.01,10.0,East,9.2,-,N/A,,Scattered Clouds,100,2013-05-21 14:53:00
11:53 AM,84.9,70.0,61,30.00,10.0,East,6.9,-,N/A,,Scattered Clouds,100,2013-05-21 15:53:00
12:53 PM,84.0,71.1,65,29.99,10.0,SW,11.5,-,N/A,,Mostly Cloudy,230,2013-05-21 16:53:00
1:53 PM,84.0,70.0,63,29.96,10.0,Variable,4.6,-,N/A,,Mostly Cloudy,0,2013-05-21 17:53:00
2:53 PM,84.9,71.1,63,29.94,10.0,WSW,9.2,-,N/A,,Mostly Cloudy,240,2013-05-21 18:53:00
3:53 PM,84.9,70.0,61,29.92,10.0,SW,9.2,-,N/A,,Scattered Clouds,230,2013-05-21 19:53:00
4:53 PM,81.0,69.1,67,29.93,10.0,SE,10.4,18.4,N/A,,Mostly Cloudy,130,2013-05-21 20:53:00
5:53 PM,82.0,66.9,60,29.92,10.0,East,5.8,-,N/A,,Scattered Clouds,80,2013-05-21 21:53:00
6:53 PM,80.1,68.0,67,29.94,10.0,NE,12.7,-,N/A,,Scattered Clouds,40,2013-05-21 22:53:00
7:53 PM,75.9,69.1,79,29.95,10.0,ENE,11.5,-,N/A,,Mostly Cloudy,60,2013-05-21 23:53:00
8:53 PM,75.0,68.0,79,29.96,10.0,ESE,8.1,-,N/A,,Overcast,110,2013-05-22 00:53:00
9:53 PM,73.0,69.1,87,29.96,10.0,East,8.1,-,N/A,,Clear,90,2013-05-22 01:53:00
10:53 PM,72.0,68.0,87,29.96,10.0,ENE,8.1,-,N/A,,Partly Cloudy,70,2013-05-22 02:53:00
11:53 PM,71.1,68.0,90,29.95,10.0,East,6.9,-,N/A,,Clear,80,2013-05-22 03:53:00